Date,TemperatureHighF,TemperatureAvgF,TemperatureLowF,DewpointHighF,DewpointAvgF,DewpointLowF,HumidityHigh,HumidityAvg,HumidityLow,PressureMaxIn,PressureMinIn,WindSpeedMaxMPH,WindSpeedAvgMPH,GustSpeedMaxMPH,PrecipitationSumIn
2013-8-1,84,70,52,30,24,13,32,18,14,29.62,29.47,19,6,19,0.00
2013-8-2,86,66,39,31,22,10,55,20,13,29.59,29.44,17,3,17,0.00
2013-8-3,88,69,47,36,26,18,66,22,13,29.53,29.44,17,3,17,0.00
2013-8-4,92,72,51,34,27,20,50,20,12,29.59,29.47,17,3,17,0.00
2013-8-5,91,70,48,40,27,20,72,22,12,29.56,29.50,13,2,17,0.00
2013-8-6,92,72,47,37,27,17,66,21,12,29.62,29.47,29,2,29,0.04
2013-8-7,87,71,54,40,27,20,58,21,13,29.59,29.50,20,3,20,0.00
2013-8-8,86,67,50,40,27,22,56,24,13,29.59,29.44,12,3,16,0.00
2013-8-9,85,68,48,47,28,18,88,26,13,29.50,29.44,21,3,21,0.04
2013-8-10,86,67,45,30,24,14,40,20,13,29.59,29.50,17,2,17,0.00
2013-8-11,86,68,48,43,27,21,57,24,13,29.65,29.50,15,3,15,0.00
2013-8-12,89,68,47,42,27,19,82,25,13,29.59,29.50,20,2,20,0.00
2013-8-13,92,70,42,42,26,17,83,21,12,29.65,29.53,15,2,15,0.00
2013-8-14,93,71,46,33,24,11,61,18,12,29.59,29.53,15,2,15,0.00
2013-8-15,92,72,45,41,25,15,75,20,12,29.62,29.56,18,3,18,0.00
2013-8-16,93,74,53,33,24,14,21,16,12,29.62,29.56,17,3,17,0.00
2013-8-17,93,73,53,33,27,16,36,19,11,29.68,29.56,19,3,19,0.00
2013-8-18,95,76,52,33,28,22,43,19,11,29.74,29.56,20,3,20,0.00
2013-8-19,90,75,63,36,30,24,33,19,12,29.74,29.59,25,4,25,0.00
2013-8-20,93,74,60,50,33,26,66,25,12,29.65,29.50,15,3,15,0.04
2013-8-21,84,67,53,56,41,32,91,42,19,29.68,29.56,13,2,13,0.12
2013-8-22,82,68,51,57,34,19,97,37,14,29.62,29.50,23,4,23,0.00
2013-8-23,85,67,46,39,26,19,74,23,13,29.53,29.44,15,2,15,0.04
2013-8-24,82,66,50,40,24,17,38,21,14,29.53,29.44,18,5,18,0.00
2013-8-25,80,66,47,38,25,20,72,21,15,29.56,29.50,20,6,20,0.00
2013-8-26,81,67,47,43,26,19,84,24,14,29.62,29.53,22,5,22,0.00
2013-8-27,84,67,53,43,28,20,56,24,15,29.62,29.50,14,3,14,0.00
2013-8-28,84,69,52,50,34,27,89,31,16,29.65,29.50,18,4,18,0.00
2013-8-29,86,74,55,36,28,21,49,20,13,29.71,29.59,18,7,18,0.00
2013-8-30,92,73,54,36,27,18,34,19,12,29.80,29.65,16,3,16,0.00
2013-8-31,92,72,54,39,28,21,37,20,12,29.71,29.59,13,3,16,0.00